Overview Statistics Trail Chart Weather Telemetry Raw packets
 

This is the latest recevied weather packets stored in our database for station/object PP5CFL-13. If no packets are shown the sender has not sent any weather packets the latest 10 day(s).

<< 45 46 47 48 49 50 51 >>
Time Temp. Humidity Pressure Rain* Wind** Luminosity Snow
1788359559 21.67° C 58% 1023.7 hPa - - - -
1788359259 21.67° C 60% 1023.7 hPa - - - -
1788358959 21.67° C 61% 1023.6 hPa - - - -
1788358659 21.11° C 62% 1023.6 hPa - - - -
1788358359 21.11° C 62% 1023.5 hPa - - - -
1788358059 21.11° C 61% 1023.6 hPa - - - -
1788357759 21.11° C 64% 1023.7 hPa - - - -
1788357459 21.11° C 64% 1023.8 hPa - - - -
1788357159 21.11° C 64% 1023.7 hPa - - - -
1788356859 21.11° C 62% 1023.8 hPa - - - -
1788356559 21.11° C 63% 1023.8 hPa - - - -
1788356259 21.11° C 65% 1023.9 hPa - - - -
1788355959 20.56° C 65% 1023.9 hPa - - - -
1788355659 20.56° C 65% 1023.9 hPa - - - -
1788355359 20.56° C 64% 1023.9 hPa - - - -
1788355059 20.56° C 65% 1024 hPa - - - -
1788354759 20.56° C 64% 1024 hPa - - - -
1788354459 20.56° C 64% 1024 hPa - - - -
1788354158 20.56° C 63% 1024.1 hPa - - - -
1788353859 20.56° C 62% 1023.8 hPa - - - -
1788353559 20.56° C 62% 1023.8 hPa - - - -
1788353259 20.56° C 62% 1023.8 hPa - - - -
1788352959 20.56° C 61% 1023.7 hPa - - - -
1788352659 20.56° C 62% 1023.7 hPa - - - -
1788352359 20.56° C 62% 1023.6 hPa - - - -

* Rain since midnight (hover to see other rain measurements)
** Current wind speed in m/s (hover to see current wind gust speed)